TimeEST,TemperatureF,Dew PointF,Humidity,Sea Level PressureIn,VisibilityMPH,Wind Direction,Wind SpeedMPH,Gust SpeedMPH,PrecipitationIn,Events,Conditions,WindDirDegrees,DateUTC
12:57 AM,42.1,39.0,89,30.30,10.0,North,10.4,-,N/A,,Clear,360,2012-12-14 05:57:00
1:57 AM,42.1,39.0,89,30.29,10.0,North,8.1,-,N/A,,Clear,360,2012-12-14 06:57:00
2:57 AM,41.0,37.9,89,30.30,10.0,North,9.2,-,N/A,,Clear,350,2012-12-14 07:57:00
3:57 AM,39.9,37.9,93,30.30,9.0,North,6.9,-,N/A,,Clear,360,2012-12-14 08:57:00
4:57 AM,39.9,37.9,93,30.29,9.0,North,8.1,-,N/A,,Clear,350,2012-12-14 09:57:00
5:57 AM,39.0,37.0,93,30.31,9.0,North,4.6,-,N/A,,Clear,350,2012-12-14 10:57:00
6:57 AM,37.9,37.0,97,30.32,6.0,North,6.9,-,N/A,,Clear,350,2012-12-14 11:57:00
7:57 AM,39.9,37.9,93,30.34,6.0,North,6.9,-,N/A,,Partly Cloudy,350,2012-12-14 12:57:00
8:57 AM,43.0,39.0,86,30.37,6.0,North,6.9,-,N/A,,Clear,360,2012-12-14 13:57:00
9:57 AM,48.9,42.1,77,30.35,6.0,NE,8.1,-,N/A,,Haze,40,2012-12-14 14:57:00
10:57 AM,54.0,43.0,66,30.34,10.0,NNE,8.1,-,N/A,,Clear,30,2012-12-14 15:57:00
11:57 AM,55.9,43.0,62,30.33,10.0,NNE,8.1,-,N/A,,Clear,20,2012-12-14 16:57:00
12:57 PM,57.9,42.1,56,30.30,10.0,NNE,8.1,-,N/A,,Clear,20,2012-12-14 17:57:00
1:57 PM,59.0,43.0,55,30.29,10.0,NNW,6.9,-,N/A,,Clear,330,2012-12-14 18:57:00
2:57 PM,57.9,39.9,51,30.27,10.0,North,8.1,-,N/A,,Clear,350,2012-12-14 19:57:00
3:57 PM,57.9,42.1,56,30.26,10.0,NNE,4.6,-,N/A,,Clear,20,2012-12-14 20:57:00
4:57 PM,51.1,43.0,74,30.25,10.0,North,3.5,-,N/A,,Clear,10,2012-12-14 21:57:00
5:57 PM,46.9,43.0,86,30.27,10.0,NNE,4.6,-,N/A,,Clear,20,2012-12-14 22:57:00
6:57 PM,43.0,39.9,89,30.27,10.0,Calm,Calm,-,N/A,,Clear,0,2012-12-14 23:57:00
7:57 PM,42.1,39.0,89,30.27,10.0,Calm,Calm,-,N/A,,Clear,0,2012-12-15 00:57:00
8:57 PM,39.0,37.0,93,30.29,10.0,Calm,Calm,-,N/A,,Clear,0,2012-12-15 01:57:00
9:57 PM,37.0,35.1,93,30.29,10.0,Calm,Calm,-,N/A,,Clear,0,2012-12-15 02:57:00
10:57 PM,37.0,35.1,93,30.29,10.0,Calm,Calm,-,N/A,,Clear,0,2012-12-15 03:57:00
11:57 PM,43.0,41.0,93,30.28,10.0,NNE,5.8,-,N/A,,Clear,30,2012-12-15 04:57:00